TimePST,TemperatureF,Dew PointF,Humidity,Sea Level PressureIn,VisibilityMPH,Wind Direction,Wind SpeedMPH,Gust SpeedMPH,PrecipitationIn,Events,Conditions,WindDirDegrees,DateUTC
12:53 AM,73.0,57.0,57,30.16,10.0,WSW,6.9,-,N/A,,Mostly Cloudy,240,2012-11-19 08:53:00
1:05 AM,71.6,55.4,57,30.18,10.0,WSW,9.2,-,N/A,,Partly Cloudy,240,2012-11-19 09:05:00
1:32 AM,71.6,55.4,57,30.18,10.0,West,6.9,-,N/A,,Mostly Cloudy,260,2012-11-19 09:32:00
1:53 AM,70.0,55.9,61,30.16,10.0,West,5.8,-,N/A,,Overcast,270,2012-11-19 09:53:00
2:53 AM,73.0,55.0,53,30.15,10.0,West,6.9,-,N/A,,Overcast,270,2012-11-19 10:53:00
3:53 AM,72.0,55.0,55,30.15,10.0,WNW,6.9,-,N/A,,Overcast,290,2012-11-19 11:53:00
4:53 AM,73.0,54.0,51,30.16,10.0,WNW,6.9,-,N/A,,Overcast,300,2012-11-19 12:53:00
5:09 AM,75.2,53.6,47,30.19,10.0,NW,8.1,-,N/A,,Overcast,320,2012-11-19 13:09:00
5:53 AM,60.1,52.0,75,30.19,7.0,WNW,5.8,-,N/A,,Mostly Cloudy,290,2012-11-19 13:53:00
6:31 AM,60.8,51.8,72,30.22,1.0,WNW,5.8,-,N/A,,Haze,300,2012-11-19 14:31:00
6:39 AM,60.8,59.0,94,30.22,0.2,NW,9.2,-,N/A,Fog,Fog,320,2012-11-19 14:39:00
6:53 AM,60.1,58.1,93,30.21,0.2,NW,6.9,-,N/A,Fog,Fog,320,2012-11-19 14:53:00
7:09 AM,59.0,59.0,100,30.23,0.2,NNW,5.8,-,N/A,Fog,Fog,340,2012-11-19 15:09:00
7:53 AM,59.7,58.1,94,30.23,0.2,WNW,5.8,-,N/A,Fog,Fog,290,2012-11-19 15:53:00
8:14 AM,60.8,55.4,82,30.25,0.8,West,6.9,-,N/A,,Haze,280,2012-11-19 16:14:00
8:23 AM,60.8,55.4,82,30.25,4.0,West,5.8,-,N/A,,Haze,280,2012-11-19 16:23:00
8:53 AM,61.3,55.0,80,30.24,5.0,Calm,Calm,-,N/A,,Haze,0,2012-11-19 16:53:00
9:53 AM,64.2,57.0,77,30.24,7.0,ENE,3.5,-,N/A,,Partly Cloudy,70,2012-11-19 17:53:00
10:53 AM,64.9,57.0,75,30.23,7.0,North,4.6,-,N/A,,Scattered Clouds,10,2012-11-19 18:53:00
11:53 AM,66.0,45.0,47,30.22,7.0,NW,6.9,-,N/A,,Partly Cloudy,310,2012-11-19 19:53:00
12:53 PM,66.9,45.0,45,30.19,7.0,NW,10.4,-,N/A,,Clear,320,2012-11-19 20:53:00
1:53 PM,66.2,43.0,43,30.18,7.0,NW,9.2,-,N/A,,Clear,310,2012-11-19 21:53:00
2:53 PM,65.7,46.0,49,30.18,7.0,WNW,10.4,-,N/A,,Partly Cloudy,300,2012-11-19 22:53:00
3:53 PM,66.2,48.0,52,30.18,7.0,WNW,11.5,-,N/A,,Clear,290,2012-11-19 23:53:00
4:53 PM,73.9,50.0,43,30.17,10.0,WNW,10.4,-,N/A,,Clear,290,2012-11-20 00:53:00
5:53 PM,71.1,48.9,45,30.19,10.0,West,10.4,-,N/A,,Clear,280,2012-11-20 01:53:00
6:53 PM,71.1,48.0,44,30.19,10.0,West,11.5,-,N/A,,Clear,280,2012-11-20 02:53:00
7:53 PM,71.1,48.0,44,30.19,10.0,West,12.7,-,N/A,,Clear,280,2012-11-20 03:53:00
8:53 PM,69.1,48.0,47,30.19,10.0,WNW,12.7,-,N/A,,Clear,290,2012-11-20 04:53:00
9:53 PM,69.1,48.9,49,30.18,10.0,WNW,9.2,-,N/A,,Clear,290,2012-11-20 05:53:00
10:53 PM,70.0,48.9,47,30.17,10.0,West,10.4,-,N/A,,Clear,280,2012-11-20 06:53:00
11:53 PM,66.0,48.9,54,30.17,10.0,WNW,13.8,-,N/A,,Clear,300,2012-11-20 07:53:00